TimePST,TemperatureF,Dew PointF,Humidity,Sea Level PressureIn,VisibilityMPH,Wind Direction,Wind SpeedMPH,Gust SpeedMPH,PrecipitationIn,Events,Conditions,WindDirDegrees,DateUTC
12:56 AM,36.0,28.0,73,30.14,10.0,NE,4.6,-,N/A,,Mostly Cloudy,40,2013-02-04 08:56:00
2:56 AM,32.0,27.0,82,30.14,10.0,South,4.6,-,N/A,,Partly Cloudy,180,2013-02-04 10:56:00
3:56 AM,32.0,27.0,82,30.14,10.0,Calm,Calm,-,N/A,,Clear,0,2013-02-04 11:56:00
4:56 AM,30.9,26.1,82,30.14,10.0,Calm,Calm,-,N/A,,Clear,0,2013-02-04 12:56:00
5:56 AM,30.9,26.1,82,30.16,10.0,Calm,Calm,-,N/A,,Clear,0,2013-02-04 13:56:00
6:56 AM,30.0,26.1,85,30.16,10.0,Calm,Calm,-,N/A,,Clear,0,2013-02-04 14:56:00
7:56 AM,30.9,27.0,85,30.17,10.0,Calm,Calm,-,N/A,,Clear,0,2013-02-04 15:56:00
8:56 AM,37.9,27.0,65,30.16,10.0,Calm,Calm,-,N/A,,Overcast,0,2013-02-04 16:56:00
9:56 AM,41.0,28.0,60,30.14,10.0,Calm,Calm,-,N/A,,Overcast,0,2013-02-04 17:56:00
10:56 AM,45.0,27.0,49,30.14,10.0,East,3.5,-,N/A,,Mostly Cloudy,90,2013-02-04 18:56:00
11:56 AM,48.9,26.1,41,30.10,10.0,East,3.5,-,N/A,,Mostly Cloudy,80,2013-02-04 19:56:00
12:56 PM,51.1,24.1,35,30.06,10.0,East,4.6,-,N/A,,Partly Cloudy,80,2013-02-04 20:56:00
1:56 PM,53.1,28.0,38,30.03,10.0,NNE,4.6,-,N/A,,Clear,20,2013-02-04 21:56:00
2:56 PM,53.1,23.0,31,30.02,10.0,ENE,4.6,-,N/A,,Clear,60,2013-02-04 22:56:00
3:56 PM,52.0,28.9,41,30.01,10.0,NNE,4.6,-,N/A,,Clear,30,2013-02-04 23:56:00
5:56 PM,45.0,28.9,53,30.01,10.0,NE,4.6,-,N/A,,Clear,50,2013-02-05 01:56:00
6:56 PM,42.1,30.0,62,30.02,10.0,Calm,Calm,-,N/A,,Clear,0,2013-02-05 02:56:00
7:56 PM,37.0,28.0,70,30.01,10.0,Calm,Calm,-,N/A,,Clear,0,2013-02-05 03:56:00
8:56 PM,39.9,28.9,65,29.98,10.0,SE,4.6,-,N/A,,Clear,140,2013-02-05 04:56:00
9:56 PM,37.0,28.0,70,29.96,10.0,NE,4.6,-,N/A,,Clear,50,2013-02-05 05:56:00
10:56 PM,36.0,28.0,73,29.94,10.0,NE,5.8,-,N/A,,Partly Cloudy,50,2013-02-05 06:56:00
11:56 PM,39.0,26.1,60,29.92,10.0,East,3.5,-,N/A,,Clear,90,2013-02-05 07:56:00